Beaufort, NC

2:36 PM EDT on June 18, 2019 (GMT -0400)
Smith

Weather History for KMRH - May, 2019

Change the Weather History Date:

Sunday, May 19, 2019

  Actual Average Record
Temperature  
Mean Temperature 76 °F -  
Max Temperature 82 °F 78 °F 89 °F (1965)
Min Temperature 71 °F 60 °F 44 °F (1976)
Cooling Degree Days 11    
Growing Degree Days 26 (Base 50)    
Moisture  
Dew Point 70 °F    
Average Humidity 81    
Maximum Humidity 91    
Minimum Humidity 69    
Precipitation  
Precipitation 0.00 in - - ()
Sea Level Pressure  
Sea Level Pressure 30.09 in    
Wind  
Wind Speed 9 mph (SW)    
Max Wind Speed 16 mph    
Max Gust Speed 23 mph    
Visibility 10 miles    
Events      
Averages and records for this station are not official NWS values.
T = Trace of Precipitation, MM = Missing Value Source: NWS Daily Summary

Daily Weather History Graph

Daily Weather History Graph

Search for Another Location

Airport or City:

Astronomy

May. 19, 2019 Rise Set
Actual Time 6:01 AM EDT 8:05 PM EDT
Civil Twilight 5:32 AM EDT 8:33 PM EDT
Nautical Twilight 4:58 AM EDT 9:08 PM EDT
Astronomical Twilight 4:21 AM EDT 9:45 PM EDT
Moon 9:03 PM EDT (5/19) 6:43 AM EDT (5/19)
Length of Visible Light 15h 01m
Length of Day
14h 04m
Full, 99% of the Moon is Illuminated
May 19
Full
May 26
Last Quarter
Jun 3
New
Jun 10
First Quarter
Jun 17
Full

Hourly Weather History & Observations

Time (EDT) Temp. Heat Index Dew Point Humidity Pressure Visibility Wind Dir Wind Speed Gust Speed Precip Events Conditions
12:58 AM 73.9 °F - 70.0 °F 87% 30.07 in 10.0 mi SW 5.8 mph - N/A   Clear
1:58 AM 73.0 °F - 70.0 °F 90% 30.06 in 10.0 mi SW 8.1 mph - N/A   Clear
2:58 AM 73.0 °F - 69.1 °F 87% 30.06 in 10.0 mi SW 6.9 mph - N/A   Clear
3:58 AM 72.0 °F - 69.1 °F 91% 30.06 in 10.0 mi SW 4.6 mph - N/A   Clear
4:58 AM 71.1 °F - 68.0 °F 90% 30.07 in 10.0 mi SSW 4.6 mph - N/A   Clear
5:58 AM 72.0 °F - 68.0 °F 87% 30.08 in 10.0 mi SW 5.8 mph - N/A   Clear
6:58 AM 73.9 °F - 69.1 °F 85% 30.10 in 10.0 mi SSW 3.5 mph - N/A   Clear
7:58 AM 75.0 °F - 70.0 °F 84% 30.11 in 10.0 mi SW 8.1 mph - N/A   Clear
8:58 AM 77.0 °F - 70.0 °F 79% 30.12 in 10.0 mi WSW 8.1 mph - N/A   Clear
9:58 AM 78.1 °F - 71.1 °F 79% 30.12 in 10.0 mi SSW 9.2 mph - N/A   Clear
10:58 AM 79.0 °F - 72.0 °F 79% 30.12 in 10.0 mi South 10.4 mph - N/A   Clear
11:58 AM 80.1 °F 83.2 °F 70.0 °F 71% 30.11 in 10.0 mi SW 15.0 mph - N/A   Clear
12:58 PM 81.0 °F 84.4 °F 70.0 °F 69% 30.12 in 10.0 mi SSW 16.1 mph - N/A   Clear
1:58 PM 81.0 °F 84.9 °F 71.1 °F 72% 30.11 in 10.0 mi SSW 13.8 mph - N/A   Clear
2:58 PM 81.0 °F 84.4 °F 70.0 °F 69% 30.09 in 10.0 mi SSW 16.1 mph - N/A   Clear
3:58 PM 81.0 °F 84.9 °F 71.1 °F 72% 30.08 in 10.0 mi SW 13.8 mph - N/A   Clear
4:58 PM 81.0 °F 84.9 °F 71.1 °F 72% 30.06 in 10.0 mi SSW 16.1 mph 23.0 mph N/A   Clear
5:58 PM 79.0 °F - 70.0 °F 74% 30.06 in 10.0 mi SW 15.0 mph - N/A   Clear
6:58 PM 78.1 °F - 70.0 °F 76% 30.06 in 10.0 mi SSW 13.8 mph - N/A   Clear
7:58 PM 75.9 °F - 70.0 °F 82% 30.06 in 10.0 mi SSW 11.5 mph - N/A   Clear
8:58 PM 75.0 °F - 71.1 °F 87% 30.07 in 10.0 mi SSW 11.5 mph - N/A   Clear
9:58 PM 75.0 °F - 70.0 °F 84% 30.09 in 10.0 mi SSW 9.2 mph - N/A   Clear
10:58 PM 75.0 °F - 70.0 °F 84% 30.08 in 10.0 mi SW 11.5 mph - N/A   Clear
11:58 PM 73.9 °F - 70.0 °F 87% 30.09 in 10.0 mi SW 11.5 mph - N/A   Clear